Time,TemperatureF,DewpointF,PressureIn,WindDirection,WindDirectionDegrees,WindSpeedMPH,WindSpeedGustMPH,Humidity,HourlyPrecipIn,Conditions,Clouds,dailyrainin,SoftwareType,DateUTC
2013-06-13 00:06:00,49.0,48.0,29.81,WNW,296,0.0,1.0,95,0.00,,,0.00,weatherlink.com 1.10,2013-06-13 04:06:00,
2013-06-13 00:17:00,48.8,48.0,29.81,WNW,296,0.0,1.0,95,0.00,,,0.00,weatherlink.com 1.10,2013-06-13 04:17:00,
2013-06-13 00:32:00,48.7,47.0,29.81,WNW,296,0.0,2.0,95,0.00,,,0.00,weatherlink.com 1.10,2013-06-13 04:32:00,
2013-06-13 00:47:00,48.4,47.0,29.80,WNW,296,0.0,1.0,95,0.00,,,0.00,weatherlink.com 1.10,2013-06-13 04:47:00,
2013-06-13 01:02:00,47.7,46.0,29.79,WNW,296,0.0,0.0,94,0.00,,,0.00,weatherlink.com 1.10,2013-06-13 05:02:00,
2013-06-13 01:18:00,47.5,46.0,29.79,WNW,296,0.0,1.0,95,0.00,,,0.00,weatherlink.com 1.10,2013-06-13 05:18:00,
2013-06-13 01:33:00,47.9,47.0,29.78,WNW,296,0.0,3.0,95,0.00,,,0.00,weatherlink.com 1.10,2013-06-13 05:33:00,
2013-06-13 01:48:00,47.7,46.0,29.78,WNW,296,0.0,2.0,95,0.00,,,0.00,weatherlink.com 1.10,2013-06-13 05:48:00,
2013-06-13 02:03:00,47.7,46.0,29.79,WNW,296,0.0,0.0,95,0.00,,,0.00,weatherlink.com 1.10,2013-06-13 06:03:00,
2013-06-13 02:18:00,47.5,46.0,29.79,WNW,296,0.0,0.0,95,0.00,,,0.00,weatherlink.com 1.10,2013-06-13 06:18:00,
2013-06-13 02:33:00,47.4,46.0,29.77,WNW,296,0.0,0.0,95,0.00,,,0.00,weatherlink.com 1.10,2013-06-13 06:33:00,
2013-06-13 02:49:00,48.1,47.0,29.77,WNW,296,2.0,2.0,96,0.00,,,0.00,weatherlink.com 1.10,2013-06-13 06:49:00,
2013-06-13 03:03:00,48.7,48.0,29.76,WNW,296,0.0,2.0,96,0.00,,,0.00,weatherlink.com 1.10,2013-06-13 07:03:00,
2013-06-13 03:19:00,49.0,48.0,29.76,WNW,296,0.0,2.0,96,0.00,,,0.00,weatherlink.com 1.10,2013-06-13 07:19:00,
2013-06-13 03:33:00,49.2,48.0,29.76,WNW,296,0.0,1.0,96,0.00,,,0.00,weatherlink.com 1.10,2013-06-13 07:33:00,
2013-06-13 03:48:00,48.9,48.0,29.76,WNW,296,0.0,0.0,96,0.00,,,0.00,weatherlink.com 1.10,2013-06-13 07:48:00,
2013-06-13 04:03:00,48.8,48.0,29.75,WNW,296,0.0,0.0,96,0.00,,,0.00,weatherlink.com 1.10,2013-06-13 08:03:00,
2013-06-13 04:19:00,48.8,48.0,29.74,WNW,296,0.0,0.0,96,0.00,,,0.00,weatherlink.com 1.10,2013-06-13 08:19:00,
2013-06-13 04:34:00,50.0,49.0,29.74,WNW,296,1.0,2.0,96,0.00,,,0.00,weatherlink.com 1.10,2013-06-13 08:34:00,
2013-06-13 04:49:00,50.0,49.0,29.74,WNW,296,0.0,1.0,96,0.00,,,0.00,weatherlink.com 1.10,2013-06-13 08:49:00,
2013-06-13 05:04:00,49.6,49.0,29.74,WNW,296,0.0,1.0,96,0.00,,,0.00,weatherlink.com 1.10,2013-06-13 09:04:00,
2013-06-13 05:19:00,49.3,48.0,29.75,WNW,296,0.0,0.0,96,0.01,,,0.00,weatherlink.com 1.10,2013-06-13 09:19:00,
2013-06-13 05:34:00,49.4,48.0,29.75,WNW,296,0.0,0.0,96,0.02,,,0.01,weatherlink.com 1.10,2013-06-13 09:34:00,
2013-06-13 05:49:00,49.5,48.0,29.74,ENE,72,0.0,0.0,96,0.03,,,0.02,weatherlink.com 1.10,2013-06-13 09:49:00,
2013-06-13 06:04:00,49.8,49.0,29.74,NE,37,0.0,0.0,96,0.02,,,0.02,weatherlink.com 1.10,2013-06-13 10:04:00,
2013-06-13 06:19:00,50.2,49.0,29.73,NE,37,0.0,0.0,96,0.02,,,0.02,weatherlink.com 1.10,2013-06-13 10:19:00,
2013-06-13 06:34:00,50.6,50.0,29.72,NNW,327,0.0,0.0,96,0.01,,,0.02,weatherlink.com 1.10,2013-06-13 10:34:00,
2013-06-13 06:51:00,50.6,50.0,29.70,NNW,327,0.0,0.0,96,0.00,,,0.02,weatherlink.com 1.10,2013-06-13 10:51:00,
2013-06-13 07:06:00,50.9,50.0,29.69,NNW,327,0.0,0.0,96,0.00,,,0.02,weatherlink.com 1.10,2013-06-13 11:06:00,
2013-06-13 07:21:00,51.4,51.0,29.68,NNW,327,0.0,1.0,97,0.00,,,0.02,weatherlink.com 1.10,2013-06-13 11:21:00,
2013-06-13 07:35:00,51.7,51.0,29.68,NNW,327,0.0,0.0,96,0.00,,,0.02,weatherlink.com 1.10,2013-06-13 11:35:00,
2013-06-13 07:50:00,52.2,51.0,29.69,NE,48,1.0,2.0,97,0.00,,,0.02,weatherlink.com 1.10,2013-06-13 11:50:00,
2013-06-13 08:05:00,52.2,51.0,29.68,SSW,204,0.0,2.0,96,0.01,,,0.03,weatherlink.com 1.10,2013-06-13 12:05:00,
2013-06-13 08:20:00,52.1,51.0,29.68,SSE,159,0.0,2.0,96,0.03,,,0.05,weatherlink.com 1.10,2013-06-13 12:20:00,
2013-06-13 08:35:00,52.5,52.0,29.67,West,273,0.0,2.0,97,0.04,,,0.06,weatherlink.com 1.10,2013-06-13 12:35:00,
2013-06-13 08:51:00,52.8,52.0,29.66,South,182,1.0,3.0,97,0.06,,,0.08,weatherlink.com 1.10,2013-06-13 12:51:00,
2013-06-13 09:06:00,53.0,52.0,29.66,SW,229,0.0,2.0,97,0.09,,,0.12,weatherlink.com 1.10,2013-06-13 13:06:00,
2013-06-13 09:21:00,53.1,52.0,29.66,SSW,209,0.0,4.0,97,0.11,,,0.16,weatherlink.com 1.10,2013-06-13 13:21:00,
2013-06-13 09:36:00,53.2,52.0,29.65,SSE,167,0.0,2.0,97,0.14,,,0.20,weatherlink.com 1.10,2013-06-13 13:36:00,
2013-06-13 09:51:00,53.3,52.0,29.64,SW,236,0.0,4.0,96,0.15,,,0.23,weatherlink.com 1.10,2013-06-13 13:51:00,
2013-06-13 10:06:00,53.5,52.0,29.64,SE,144,1.0,7.0,96,0.13,,,0.26,weatherlink.com 1.10,2013-06-13 14:06:00,
2013-06-13 10:21:00,53.5,52.0,29.64,South,188,1.0,4.0,96,0.14,,,0.31,weatherlink.com 1.10,2013-06-13 14:21:00,
2013-06-13 10:36:00,53.6,53.0,29.62,ENE,78,0.0,3.0,96,0.17,,,0.37,weatherlink.com 1.10,2013-06-13 14:36:00,
2013-06-13 10:51:00,53.8,53.0,29.61,SSE,150,1.0,7.0,96,0.16,,,0.39,weatherlink.com 1.10,2013-06-13 14:51:00,
2013-06-13 11:06:00,53.9,53.0,29.60,SE,136,1.0,4.0,96,0.18,,,0.44,weatherlink.com 1.10,2013-06-13 15:06:00,
2013-06-13 11:22:00,54.2,53.0,29.59,SSE,165,3.0,5.0,96,0.15,,,0.46,weatherlink.com 1.10,2013-06-13 15:22:00,
2013-06-13 11:37:00,54.3,53.0,29.58,SE,146,3.0,4.0,96,0.10,,,0.47,weatherlink.com 1.10,2013-06-13 15:37:00,
2013-06-13 11:52:00,54.1,53.0,29.57,SE,143,2.0,9.0,96,0.10,,,0.49,weatherlink.com 1.10,2013-06-13 15:52:00,
2013-06-13 12:07:00,53.9,53.0,29.56,SSE,157,4.0,7.0,96,0.05,,,0.50,weatherlink.com 1.10,2013-06-13 16:07:00,
2013-06-13 12:22:00,53.6,53.0,29.56,South,178,0.0,6.0,96,0.05,,,0.51,weatherlink.com 1.10,2013-06-13 16:22:00,
2013-06-13 12:37:00,53.5,52.0,29.55,South,188,1.0,7.0,96,0.06,,,0.53,weatherlink.com 1.10,2013-06-13 16:37:00,
2013-06-13 12:52:00,53.4,52.0,29.55,SE,136,1.0,7.0,96,0.06,,,0.55,weatherlink.com 1.10,2013-06-13 16:52:00,
2013-06-13 13:08:00,53.1,52.0,29.54,East,98,1.0,8.0,95,0.09,,,0.59,weatherlink.com 1.10,2013-06-13 17:08:00,
2013-06-13 13:22:00,53.0,52.0,29.54,North,10,0.0,12.0,96,0.09,,,0.60,weatherlink.com 1.10,2013-06-13 17:22:00,
2013-06-13 13:38:00,53.0,52.0,29.53,East,83,0.0,6.0,96,0.08,,,0.61,weatherlink.com 1.10,2013-06-13 17:38:00,
2013-06-13 13:53:00,53.0,52.0,29.53,SE,138,0.0,4.0,96,0.07,,,0.62,weatherlink.com 1.10,2013-06-13 17:53:00,
2013-06-13 14:08:00,52.9,52.0,29.53,ESE,115,2.0,9.0,96,0.04,,,0.63,weatherlink.com 1.10,2013-06-13 18:08:00,
2013-06-13 14:24:00,52.8,52.0,29.53,East,87,0.0,8.0,96,0.05,,,0.65,weatherlink.com 1.10,2013-06-13 18:24:00,
2013-06-13 14:38:00,53.0,52.0,29.53,ESE,107,2.0,4.0,96,0.08,,,0.69,weatherlink.com 1.10,2013-06-13 18:38:00,
2013-06-13 14:53:00,52.9,52.0,29.54,South,173,0.0,6.0,96,0.14,,,0.76,weatherlink.com 1.10,2013-06-13 18:53:00,
2013-06-13 15:08:00,52.7,52.0,29.54,SSE,148,0.0,4.0,96,0.16,,,0.79,weatherlink.com 1.10,2013-06-13 19:08:00,
2013-06-13 15:23:00,52.6,52.0,29.55,East,100,1.0,7.0,96,0.16,,,0.81,weatherlink.com 1.10,2013-06-13 19:23:00,
2013-06-13 15:38:00,52.7,52.0,29.55,SSE,148,0.0,4.0,96,0.14,,,0.83,weatherlink.com 1.10,2013-06-13 19:38:00,
2013-06-13 15:54:00,52.5,51.0,29.55,WSW,253,2.0,8.0,95,0.09,,,0.86,weatherlink.com 1.10,2013-06-13 19:54:00,
2013-06-13 16:08:00,52.4,51.0,29.55,SSE,162,1.0,5.0,95,0.08,,,0.87,weatherlink.com 1.10,2013-06-13 20:08:00,
2013-06-13 16:23:00,52.3,51.0,29.55,ENE,58,0.0,7.0,95,0.07,,,0.88,weatherlink.com 1.10,2013-06-13 20:23:00,
2013-06-13 16:39:00,52.3,51.0,29.55,ESE,105,3.0,8.0,95,0.06,,,0.89,weatherlink.com 1.10,2013-06-13 20:39:00,
2013-06-13 16:54:00,52.3,51.0,29.54,SE,139,0.0,7.0,94,0.03,,,0.89,weatherlink.com 1.10,2013-06-13 20:54:00,
2013-06-13 17:09:00,52.3,51.0,29.54,SSE,149,0.0,14.0,94,0.04,,,0.91,weatherlink.com 1.10,2013-06-13 21:09:00,
2013-06-13 17:24:00,52.1,51.0,29.55,SE,143,2.0,7.0,94,0.04,,,0.92,weatherlink.com 1.10,2013-06-13 21:24:00,
2013-06-13 17:39:00,52.2,51.0,29.54,ESE,122,0.0,5.0,95,0.04,,,0.93,weatherlink.com 1.10,2013-06-13 21:39:00,
2013-06-13 17:54:00,52.1,51.0,29.54,East,90,0.0,9.0,95,0.05,,,0.94,weatherlink.com 1.10,2013-06-13 21:54:00,
2013-06-13 18:09:00,52.2,51.0,29.54,SE,124,1.0,6.0,95,0.04,,,0.95,weatherlink.com 1.10,2013-06-13 22:09:00,
2013-06-13 18:24:00,52.2,51.0,29.55,South,172,1.0,4.0,95,0.03,,,0.95,weatherlink.com 1.10,2013-06-13 22:24:00,
2013-06-13 18:39:00,52.2,51.0,29.55,SE,133,1.0,8.0,94,0.02,,,0.95,weatherlink.com 1.10,2013-06-13 22:39:00,
2013-06-13 18:54:00,52.1,51.0,29.55,East,99,0.0,6.0,94,0.01,,,0.95,weatherlink.com 1.10,2013-06-13 22:54:00,
2013-06-13 19:09:00,52.1,51.0,29.55,SSE,165,5.0,10.0,94,0.01,,,0.96,weatherlink.com 1.10,2013-06-13 23:09:00,
2013-06-13 19:24:00,52.1,50.0,29.56,SSE,154,5.0,6.0,93,0.01,,,0.96,weatherlink.com 1.10,2013-06-13 23:24:00,
2013-06-13 19:40:00,51.7,50.0,29.56,South,171,0.0,4.0,94,0.03,,,0.98,weatherlink.com 1.10,2013-06-13 23:40:00,
2013-06-13 19:55:00,51.5,50.0,29.57,ESE,123,0.0,8.0,93,0.05,,,1.00,weatherlink.com 1.10,2013-06-13 23:55:00,
2013-06-13 20:10:00,51.5,50.0,29.58,NNE,16,4.0,8.0,93,0.05,,,1.01,weatherlink.com 1.10,2013-06-14 00:10:00,
2013-06-13 20:25:00,51.4,50.0,29.58,NE,52,0.0,9.0,93,0.07,,,1.03,weatherlink.com 1.10,2013-06-14 00:25:00,
2013-06-13 20:40:00,51.2,49.0,29.59,South,181,4.0,6.0,93,0.07,,,1.05,weatherlink.com 1.10,2013-06-14 00:40:00,
2013-06-13 20:56:00,51.0,49.0,29.59,SW,229,1.0,7.0,93,0.07,,,1.07,weatherlink.com 1.10,2013-06-14 00:56:00,
2013-06-13 21:10:00,50.6,49.0,29.59,SW,225,0.0,8.0,93,0.07,,,1.08,weatherlink.com 1.10,2013-06-14 01:10:00,
2013-06-13 21:25:00,50.4,49.0,29.59,NE,34,5.0,7.0,94,0.06,,,1.09,weatherlink.com 1.10,2013-06-14 01:25:00,
2013-06-13 21:40:00,50.5,49.0,29.59,SW,215,1.0,5.0,94,0.04,,,1.09,weatherlink.com 1.10,2013-06-14 01:40:00,
2013-06-13 21:55:00,50.9,49.0,29.60,WSW,238,1.0,7.0,93,0.03,,,1.10,weatherlink.com 1.10,2013-06-14 01:55:00,
2013-06-13 22:10:00,50.5,49.0,29.61,WSW,252,4.0,7.0,94,0.02,,,1.10,weatherlink.com 1.10,2013-06-14 02:10:00,
2013-06-13 22:26:00,50.4,49.0,29.61,WSW,257,0.0,4.0,94,0.02,,,1.11,weatherlink.com 1.10,2013-06-14 02:26:00,
2013-06-13 22:41:00,50.8,49.0,29.61,WSW,242,2.0,9.0,94,0.02,,,1.11,weatherlink.com 1.10,2013-06-14 02:41:00,
2013-06-13 22:56:00,51.4,50.0,29.61,NNW,340,2.0,5.0,93,0.02,,,1.12,weatherlink.com 1.10,2013-06-14 02:56:00,
2013-06-13 23:11:00,51.6,49.0,29.61,NNW,334,0.0,6.0,92,0.02,,,1.12,weatherlink.com 1.10,2013-06-14 03:11:00,
2013-06-13 23:26:00,51.5,49.0,29.62,NNW,336,3.0,6.0,92,0.02,,,1.13,weatherlink.com 1.10,2013-06-14 03:26:00,
2013-06-13 23:41:00,51.4,49.0,29.62,WSW,254,4.0,9.0,91,0.03,,,1.14,weatherlink.com 1.10,2013-06-14 03:41:00,
2013-06-13 23:56:00,51.3,49.0,29.63,NW,304,5.0,7.0,91,0.03,,,1.15,weatherlink.com 1.10,2013-06-14 03:56:00,